Meath Environmental Platform

Observations for Trim Market St

Time AQI Temp °C Hum % Pres Pa CO μg/m³ H₂S μg/m³ NO μg/m³ NO₂ μg/m³ O₃ μg/m³ SO₂ μg/m³ PM1 μg/m³ PM2.5 μg/m³ PM10 μg/m³
Wednesday 15 July 2026
18:04 1 28.1 45 61,404 0 18.7 0 15 39.42 0 7.84 13.12 17.63
18:02 1 28.2 45 61,306 0 22.34 0 17.78 28.65 0 4.99 9.47 12.97
18:01 1 28.2 45 61,340 0 23.72 0 20.49 33.74 0 7.13 12.08 16.08
18:00 1 28.3 44 61,534 0 22.73 0 19 33.24 0 7.13 10.54 14.54
17:59 1 28.3 44 61,769 0 23.35 0 18.21 41.17 0 9.26 13.16 18.45
17:58 1 28.4 44 61,994 0 22.52 0 15.7 36.52 0 5.7 10.03 14.56
17:57 1 28.4 44 62,142 0 23.16 0 16.73 40.25 0 7.13 11.09 15.35
17:56 1 28.5 44 62,328 0 23 0 16.91 38.31 0 6.41 9.53 13.79
17:54 1 28.6 43 62,742 0 25.11 0 17.63 41.32 0 6.41 10.08 14.6
17:52 1 28.7 43 63,236 0 23.9 0 16.25 39.94 0 6.41 10.63 15.4
17:49 1 28.9 42 63,799 0 24.91 0 15.35 39.77 0 7.84 12.23 16.22
17:46 1 29.1 42 64,054 0 24.8 0 15.76 41.51 0 5.7 9.64 12.29
17:42 1 29.3 41 64,396 0 27.31 0 15.49 40.24 0 7.13 10.21 13.12
17:40 1 29.5 41 64,546 0 26.74 0 14.88 40.3 0 7.13 9.71 12.33
17:37 1 29.7 40 64,833 0 30.65 0 17.21 41.77 0 5.7 9.75 14.77
17:32 1 30.3 38 65,309 0 32.43 0 15.22 48.34 0 6.41 10.91 15.67
17:31 1 30.4 38 65,435 0 27.92 0 14.04 47.67 0 6.41 10.93 14.06
17:30 1 30.5 38 65,538 0 28.67 0 17.54 38.68 0 6.41 10.42 14.07
17:29 1 30.7 38 65,605 0 28.63 0 12.42 46.22 0 5.7 9.38 14.9
17:28 1 30.8 37 65,688 0 27.23 0 11.13 46.3 0 7.84 11.52 14.92